TimeCDT,TemperatureF,Dew PointF,Humidity,Sea Level PressureIn,VisibilityMPH,Wind Direction,Wind SpeedMPH,Gust SpeedMPH,PrecipitationIn,Events,Conditions,WindDirDegrees,DateUTC
12:53 AM,50.0,32.0,50,29.96,10.0,NNE,10.4,-,N/A,,Clear,30,2012-11-03 05:53:00
1:53 AM,48.0,34.0,58,29.97,10.0,NNE,12.7,-,N/A,,Clear,20,2012-11-03 06:53:00
2:53 AM,45.0,33.1,63,30.00,10.0,North,9.2,-,N/A,,Clear,360,2012-11-03 07:53:00
3:53 AM,43.0,33.1,68,30.01,10.0,North,11.5,-,N/A,,Clear,10,2012-11-03 08:53:00
4:53 AM,42.1,34.0,73,30.04,10.0,North,12.7,-,N/A,,Clear,360,2012-11-03 09:53:00
5:53 AM,41.0,34.0,76,30.08,10.0,North,10.4,-,N/A,,Clear,350,2012-11-03 10:53:00
6:53 AM,39.0,33.1,79,30.12,10.0,North,11.5,-,N/A,,Clear,360,2012-11-03 11:53:00
7:53 AM,37.9,33.1,83,30.16,10.0,North,12.7,-,N/A,,Clear,350,2012-11-03 12:53:00
8:53 AM,39.0,34.0,82,30.18,10.0,North,10.4,-,N/A,,Clear,360,2012-11-03 13:53:00
9:53 AM,44.1,35.1,71,30.19,10.0,North,12.7,-,N/A,,Clear,10,2012-11-03 14:53:00
10:53 AM,48.0,35.1,61,30.18,10.0,North,11.5,-,N/A,,Clear,10,2012-11-03 15:53:00
11:53 AM,52.0,35.1,53,30.18,10.0,North,8.1,-,N/A,,Clear,10,2012-11-03 16:53:00
12:53 PM,57.9,33.1,39,30.16,10.0,ENE,12.7,17.3,N/A,,Clear,60,2012-11-03 17:53:00
1:53 PM,62.1,30.9,31,30.12,10.0,East,13.8,-,N/A,,Clear,80,2012-11-03 18:53:00
2:53 PM,64.0,30.0,28,30.11,10.0,East,8.1,-,N/A,,Clear,100,2012-11-03 19:53:00
3:53 PM,64.0,28.0,26,30.09,10.0,ENE,10.4,-,N/A,,Clear,70,2012-11-03 20:53:00
4:53 PM,64.0,28.9,27,30.10,10.0,East,9.2,17.3,N/A,,Clear,90,2012-11-03 21:53:00
5:53 PM,62.1,28.9,29,30.12,10.0,ESE,8.1,-,N/A,,Clear,120,2012-11-03 22:53:00
6:53 PM,57.9,30.0,35,30.13,10.0,East,9.2,-,N/A,,Clear,100,2012-11-03 23:53:00
7:53 PM,51.1,30.0,44,30.16,10.0,SE,8.1,-,N/A,,Clear,130,2012-11-04 00:53:00
8:53 PM,48.0,28.9,48,30.17,10.0,ESE,5.8,-,N/A,,Clear,110,2012-11-04 01:53:00
9:53 PM,48.9,28.9,46,30.16,10.0,ESE,9.2,-,N/A,,Clear,110,2012-11-04 02:53:00
10:53 PM,48.0,30.0,50,30.16,10.0,ESE,9.2,-,N/A,,Partly Cloudy,110,2012-11-04 03:53:00
11:53 PM,45.0,30.0,56,30.18,10.0,SE,5.8,-,N/A,,Clear,140,2012-11-04 04:53:00